Location: Catstown
(52.4386°N, 7.2633°W)
Time: 23:09:14
(UTC+00:00)

Cosmos 2285 Rocket - Pass Details

Date: 18 September 2020
Orbit: 970 x 1000 km, 74.0° (Epoch: 31 October)

Event Time Altitude Azimuth Distance (km) Brightness Sun altitude
Rises 21:18:48 0° 203° (SSW) 3,655 6.9 -23.8°
Reaches altitude 10° 21:21:18 10° 204° (SSW) 2,714 6.2 -24.1°
Maximum altitude 21:27:37 89° 293° (WNW) 985 3.9 -24.8°
Drops below altitude 10° 21:34:01 10° 26° (NNE) 2,749 6.5 -25.6°
Sets 21:36:34 0° 26° (NNE) 3,706 7.2 -25.9°
